1998-067QN

Last updated on Fri Jul 19 2019 01:02:10 GMT+0100 (British Summer Time)

1 44428U 98067QN 19199.15121546 .00003846 00000-0 70718-4 0 9994 2 44428 51.6403 207.5662 0003272 159.2009 200.9114 15.51841861 2358
UTC large
Height (km)
Speed (km/s)
/
Latitude / Longitude
Inclination (degrees)
Orbital Period (minutes)
Azimuth
Elevation
Range (km)
Doppler Factor

Next 0 passes for location: London (51.5072 / 0.1276)

Sorry there are no passes over London.